Skip Page Navigation
NASA JPL Caltech
NASA Logo - Jet Propulsion Laboratory + View the NASA Portal
+ Center for Near-Earth Object Studies
JPL Home Earth Solar System Stars & Galaxies Technology
JPL Solar System Dynamics
BODIES ORBITS EPHEMERIDES TOOLS PHYSICAL DATA DISCOVERY FAQ SITE MAP
JPL Small-Body Database Browser
Search: [ help ]  
85934 (1999 CF148)
Classification: Main-belt Asteroid          SPK-ID: 2085934
Ephemeris | Orbit Diagram | Orbital Elements | Mission Design | Physical Parameters | Discovery Circumstances ]

[ show orbit diagram ]
Orbital Elements at Epoch 2459000.5 (2020-May-31.0) TDB
Reference: JPL 20 (heliocentric ecliptic J2000)
 Element Value Uncertainty (1-sigma)   Units 
e .1286513607118806 3.1076e-08  
a 2.545937526942077 1.3332e-08 au
q 2.218399199813538 7.9603e-08 au
i 3.235283084431488 4.3186e-06 deg
node 151.1476891043059 7.6877e-05 deg
peri 156.5106469089247 7.9438e-05 deg
M 280.7968035413034 2.0757e-05 deg
tp 2459326.945171333749
(2021-Apr-22.44517133)
8.5935e-05 TDB
period 1483.78180344571
4.06
1.1655e-05
3.191e-08
d
yr
n .2426232746378143 1.9058e-09 deg/d
Q 2.873475854070615 1.5047e-08 au
  Orbit Determination Parameters
   # obs. used (total)      628  
   data-arc span      9195 days (25.17 yr)  
   first obs. used      1995-02-21  
   last obs. used      2020-04-25  
   planetary ephem.      DE431  
   SB-pert. ephem.      SB431-N16  
   condition code      0  
   norm. resid. RMS      .59744  
   source      ORB  
   producer      Otto Matic  
   solution date      2020-May-20 15:41:17  

Additional Information
 Earth MOID = 1.20411 au 
 Jupiter MOID = 2.35455 au 
 T_jup = 3.429 
[ show covariance matrix ]

Ephemeris | Orbit Diagram | Orbital Elements | Mission Design | Physical Parameters | Discovery Circumstances ]

Physical Parameter Table
Parameter Symbol Value Units Sigma Reference Notes
absolute magnitude H 16.1   n/a MPO436375  

85934 (1999 CF148)          Discovered 1999-Feb-10 by Spacewatch at Kitt Peak
Reference: 20040830/Numbers.arcLast Updated: 2004-09-06

Alternate Designations
 1999 CF148 = 2001 UT73 
Ephemeris | Orbit Diagram | Orbital Elements | Mission Design | Physical Parameters | Discovery Circumstances ]
ABOUT SSD CREDITS/AWARDS PRIVACY/COPYRIGHT GLOSSARY LINKS
FirstGov 2020-Sep-23 20:37 UT
(server date/time)  
NASA Home Page
Site Manager:   Ryan S. Park
Webmaster  Alan B. Chamberlin